User: anonymous   Login
Location: Unspecified
(0.0000°N, 0.0000°E)
Time: 23:23:16
(UTC+00:00)
Language:

STARLINK-5180 - Orbit

View from above orbital plane
View from above orbital plane
View from above satellite
View from above satellite

Ground track
Ground track

The orbit is defined by the following mean orbital elements,

1 55318U          26145.46995856 +.00000000 +00000-0 +45151-4 0 00005
2 55318  69.9986 170.8471 0003405 269.1124  90.9645 14.98332250    06
Epoch (UTC): 25 May 2026 11:16:44
Eccentricity: 0.0003405
inclination: 69.9986°
perigee height: 570 km
apogee height: 574 km
right ascension of ascending node: 170.8471°
argument of perigee: 269.1124°
revolutions per day: 14.98332250
mean anomaly at epoch: 90.9645°

The dashed part of the orbit path shows where the satellite is in the earth's shadow,  

DLR